CAPE
611 644 782 950 1106 1165 1107 988 687 635 453 420 275 114 358 290 375 653 1182 1382 1221 1245 1087 1079 1112 1115 962 948 1038 1074 1018 926 846 813 767 655 513 373 338 211 49 111 420
683 742 817 959 1002 1026 1072 1081 846 790 562 446 242 137 91 156 475 765 1150 1208 1188 893 1111 1232 1035 1414 1298 1139 1223 1262 1147 912 844 743 569 523 502 413 438 400 213 155 382
824 944 1144 1107 1038 1041 1148 1180 1168 1011 755 464 0 11 37 251 375 793 1046 1334 1475 1567 1427 1269 1233 1182 944 965 1116 1004 849 630 524 470 487 302 397 343 368 394 359 454 437
960 1159 1395 1276 1185 1108 1263 1274 1268 1133 732 424 3 36 83 334 366 726 1014 1562 1599 1408 1282 1328 1212 1022 965 798 728 628 499 293 204 193 174 160 149 153 223 271 306 39 176
1234 1341 1466 1510 1283 1224 1249 1389 1423 1230 953 615 3 111 313 393 566 973 1242 1565 1408 1612 1614 1245 759 701 752 734 617 300 134 65 57 54 80 72 111 126 233 159 180 143 158
1312 1476 1562 1739 1512 1412 1522 1621 1543 1356 1199 939 623 329 255 514 901 1301 1669 1439 1486 1354 945 461 326 401 416 430 376 320 251 193 153 155 124 53 38 134 153 143 174 239 356
1257 1465 1665 1823 1887 1681 1645 1664 1630 1556 1338 1107 1075 881 1077 1082 1316 1712 1675 1499 1669 1240 624 185 139 0 0 0 0 0 47 103 152 200 226 141 4 15 97 72 47 76 98
1331 1502 1697 1841 1920 1911 1892 1831 1778 1837 1687 1190 1372 1343 1236 1480 1572 2007 1792 1604 1506 1217 176 195 5 0 0 0 0 0 0 0 25 130 213 153 55 55 50 59 21 7 2
1400 1495 1629 1818 1846 1895 1917 1925 1935 1974 1959 1517 1343 1545 1473 1631 1766 2006 1864 1590 1493 1219 330 140 0 0 0 0 0 0 0 0 0 0 35 124 83 18 0 15 26 26 7
1414 1502 1573 1708 1774 1857 1935 1933 1916 1975 2045 1920 1818 1738 1825 1768 1938 2028 1924 1368 1565 1167 447 154 84 18 0 0 0 0 0 0 0 0 0 12 3 4 11 28 15 13 20
1394 1466 1534 1649 1720 1756 1827 1906 1965 1934 2042 2032 2026 2049 1998 2025 2041 2026 1923 1523 1612 1128 616 272 240 92 9 0 0 0 0 0 0 0 0 0 5 10 2 0 0 3 1
1367 1395 1511 1598 1712 1767 1769 1806 1973 2064 1999 2024 2083 2092 2073 2166 2122 1916 1674 1800 1580 1302 773 371 391 163 0 0 0 0 0 0 0 0 0 0 0 0 0 0 0 0 0
1329 1371 1418 1666 1751 1834 1854 1880 2060 2235 2162 2047 2070 2037 2091 2221 2226 2074 1654 1554 1400 1244 480 565 462 47 0 0 0 0 0 0 0 0 0 0 0 0 0 0 0 0 0
1289 1353 1375 1516 1831 2014 2076 2084 2175 2393 2341 2281 2101 2036 2052 2166 2256 1998 1675 1267 884 730 572 357 240 22 31 0 0 0 0 0 0 0 0 0 0 0 0 0 0 0 0
1365 1362 1460 1540 1609 1954 2275 2284 2477 2538 2399 2341 2270 2129 2120 2247 2448 1978 1654 1320 982 509 204 167 0 8 34 0 0 0 0 0 0 0 0 0 0 0 0 0 0 0 0
1504 1551 1764 2036 1966 2295 2075 2069 2480 2605 2577 2357 2188 2123 2095 2116 2154 2117 1860 1504 1057 793 306 43 13 32 40 0 0 0 0 0 0 0 0 0 0 0 0 0 0 0 0
1598 1766 1911 2300 2470 2751 2194 2168 2253 2567 2948 2834 2730 2568 2441 2348 2101 2085 2101 1644 1144 973 577 79 26 41 38 23 0 0 0 0 0 0 0 0 0 0 0 0 0 0 0
1730 2112 2393 2584 2614 2601 2414 2417 2495 2559 2593 2816 2974 2885 2677 2631 2523 2361 2048 1731 1237 897 741 271 57 16 38 25 3 0 0 0 0 0 0 0 0 0 0 0 0 0 0
2276 2528 2692 2721 2580 2496 2496 2544 2609 2760 2609 3170 2960 2916 2630 2441 2419 2257 1987 1699 1341 808 192 336 86 7 32 21 0 0 0 0 0 0 0 0 0 0 0 0 0 0 0
2553 2724 2786 2838 2943 3053 3122 3073 3079 2683 2894 2579 2780 2675 2627 2086 1901 1623 1407 1416 1181 571 515 285 124 31 50 44 1 0 0 0 0 0 0 0 0 0 0 0 0 0 0
2880 2835 2875 2996 2720 2735 2709 2608 2981 2719 2439 2267 2168 2185 2350 2252 2193 1904 1420 895 1095 981 437 80 156 52 83 66 24 1 0 0 0 0 0 0 0 0 0 0 0 0 0
2591 2617 2699 2762 2755 2761 2826 2855 2748 2499 2161 1961 1967 1846 1827 1955 1849 1463 1253 1111 775 630 677 224 298 79 92 76 33 10 0 0 0 0 0 0 0 0 0 0 0 0 0
2853 3072 3216 3150 3065 2968 2784 2552 2306 2344 1962 1759 1716 1516 1170 398 49 0 0 0 4 204 233 159 156 118 75 41 22 16 0 0 0 0 0 0 0 0 0 0 0 0 0
2659 2521 2424 2211 2069 1824 1622 1385 1382 1125 910 980 788 494 292 54 0 0 0 0 0 5 31 61 59 126 59 24 27 4 0 0 0 0 0 0 0 0 0 0 0 0 0
2614 2477 2244 2168 2147 2086 1791 1257 864 894 670 605 548 478 346 131 0 7 0 0 2 6 7 14 123 36 32 24 25 13 1 0 0 0 0 0 0 0 0 0 0 0 0
2419 2357 2281 2216 2116 2100 2044 1740 1548 1050 603 420 533 463 358 285 72 0 0 0 0 13 22 30 14 23 18 14 25 17 4 0 0 0 0 0 0 0 0 0 0 0 0
CIN
-295 -259 -258 -185 -118 -72 -55 -23 -28 -20 -14 -45 -42 -74 -64 -52 -75 -98 -73 -26 -45 -87 -89 -96 -34 -18 -24 -23 -18 -11 -6 -3 -3 -6 -6 -7 -10 -13 -38 -47 -85 -181 -126
-384 -272 -346 -311 -127 -104 -68 -30 -26 -21 -25 -29 -26 -50 -182 -73 -50 -55 -49 -69 -35 -90 -54 -25 -40 -27 -16 -17 -10 -3 0 -4 -5 -8 -16 -15 -15 -18 -18 -20 -27 -48 -73
-346 -330 -323 -313 -94 -153 -79 -38 -27 -26 -33 -37 0 -152 -363 -60 -86 -44 -31 -41 -84 -29 -35 -45 -48 -23 -15 -12 -5 -4 -8 -13 -17 -18 -33 -38 -27 -33 -88 -26 -78 -107 -108
-432 -349 -309 -266 -173 -160 -122 -62 -37 -27 -39 -60 -52 -81 -75 -87 -83 -34 -22 -22 -34 -43 -33 -21 -13 -11 -6 -6 -10 -6 -10 -35 -47 -79 -90 -84 -68 -81 -76 -113 -103 -166 -127
-413 -364 -331 -311 -195 -160 -138 -75 -39 -36 -41 -52 -141 -119 -87 -89 -58 -21 -42 -41 -48 -38 -18 -21 -36 -23 -11 -3 -2 -35 -68 -134 -136 -164 -162 -179 -142 -173 -118 -115 -129 -139 -134
-427 -373 -338 -291 -210 -177 -129 -86 -63 -48 -51 -58 -93 -109 -109 -71 -40 -27 -69 -62 -30 -31 -31 -63 -92 -51 -35 -24 -30 -35 -40 -50 -66 -72 -90 -193 -233 -122 -105 -106 -101 -84 -55
-478 -401 -355 -306 -251 -198 -143 -98 -91 -68 -70 -74 -62 -55 -52 -37 -31 -50 -60 -59 -15 -27 -43 -150 -134 0 0 0 0 0 -210 -105 -82 -68 -57 -73 -216 -199 -136 -202 -239 -192 -148
-513 -448 -386 -339 -274 -235 -173 -131 -104 -87 -86 -102 -70 -62 -43 -35 -41 -47 -46 -35 -19 -25 -141 -151 -55 0 0 0 0 0 0 0 -253 -125 -63 -70 -149 -152 -192 -168 -228 -131 -128
-557 -501 -460 -385 -331 -279 -232 -189 -162 -124 -102 -126 -114 -64 -63 -147 -38 -31 -26 -30 -20 -31 -48 -190 0 0 0 0 0 0 0 0 0 0 -292 -165 -199 -276 -13 -325 -269 -272 -254
-617 -572 -535 -457 -408 -359 -323 -291 -208 -169 -126 -110 -204 -216 -62 -37 -65 -49 -30 -38 -30 -39 -48 -103 -129 -191 0 0 0 0 0 0 0 0 0 -11 0 -4 -354 -334 -328 -344 -225
-635 -623 -580 -523 -482 -443 -385 -324 -278 -210 -214 -128 -183 -186 -106 -31 -49 -36 -28 -63 -44 -43 -46 -95 -90 -150 -229 0 0 0 0 0 0 0 0 0 -1 0 -2 0 0 0 0
-521 -486 -641 -570 -482 -441 -420 -357 -299 -253 -222 -182 -134 -118 -117 -59 -52 -47 -76 -60 -37 -36 -55 -106 -66 -115 0 0 0 0 0 0 0 0 0 0 0 0 0 0 0 0 0
-526 -495 -500 -585 -499 -460 -425 -368 -274 -222 -202 -207 -147 -151 -136 -96 -67 -38 -53 -81 -72 -55 -115 -80 -76 -205 0 0 0 0 0 0 0 0 0 0 0 0 0 0 0 0 0
-587 -588 -511 -643 -516 -434 -384 -339 -270 -213 -188 -174 -187 -149 -122 -95 -70 -56 -47 -72 -105 -152 -142 -149 -170 -112 -156 0 0 0 0 0 0 0 0 0 0 0 0 0 0 0 0
-731 -727 -683 -610 -523 -450 -328 -303 -257 -236 -234 -219 -214 -164 -111 -97 -87 -63 -76 -51 -85 -97 -224 -213 0 -45 -154 0 0 0 0 0 0 0 0 0 0 0 0 0 0 0 0
-703 -685 -616 -518 -511 -400 -366 -310 -244 -214 -194 -196 -185 -166 -140 -83 -53 -36 -32 -35 -28 -78 -163 -247 -203 -147 -118 0 0 0 0 0 0 0 0 0 0 0 0 0 0 0 0
-649 -604 -540 -452 -413 -320 -380 -288 -229 -164 -81 -63 -48 -44 -53 -56 -56 -49 -14 -21 -76 -88 -175 -265 -259 -204 -119 -103 0 0 0 0 0 0 0 0 0 0 0 0 0 0 0
-556 -492 -426 -345 -293 -285 -302 -257 -209 -151 -106 -46 -2 0 -10 -21 -25 -31 -25 -12 -26 -119 -102 -151 -199 -183 -123 -96 -34 0 0 0 0 0 0 0 0 0 0 0 0 0 0
-491 -303 -329 -291 -278 -255 -222 -179 -144 -91 -81 -15 -14 -9 -3 -1 -5 -2 -4 -8 -29 -109 -155 -142 -122 -148 -112 -85 0 0 0 0 0 0 0 0 0 0 0 0 0 0 0
-215 -218 -273 -191 -154 -128 -92 -78 -50 -78 -35 -57 -19 -7 0 -23 -41 -55 -31 -19 -40 -90 -67 -123 -102 -69 -64 -53 -20 0 0 0 0 0 0 0 0 0 0 0 0 0 0
-125 -131 -117 -108 -149 -143 -129 -125 -46 -63 -88 -84 -75 -38 -11 -2 0 -4 -36 -76 -48 -43 -77 -126 -49 -27 -38 -41 -34 -56 0 0 0 0 0 0 0 0 0 0 0 0 0
-89 -91 -94 -81 -80 -89 -80 -63 -58 -66 -95 -98 -65 -59 -31 -2 -2 -11 -27 -32 -11 -22 -33 -43 -23 -42 -24 -34 -28 -52 0 0 0 0 0 0 0 0 0 0 0 0 0
-19 -10 -7 -18 -30 -33 -48 -72 -91 -64 -102 -122 -98 -81 -104 -215 -255 0 0 0 0 -33 -27 -4 -31 -27 -38 -27 -17 -22 0 0 0 0 0 0 0 0 0 0 0 0 0
-16 -27 -50 -103 -142 -176 -189 -228 -230 -273 -295 -226 -234 -260 -265 -298 0 0 0 0 0 0 0 -4 -8 -3 -12 -31 -16 -22 0 0 0 0 0 0 0 0 0 0 0 0 0
-16 -20 -46 -58 -67 -78 -127 -223 -325 -274 -313 -293 -257 -226 -216 -237 0 -239 -3 -1 -12 -4 -1 0 0 0 -18 -13 -16 -19 -31 0 0 0 0 0 0 0 0 0 0 0 0
-20 -19 -17 -21 -37 -44 -53 -77 -88 -104 -239 -332 -253 -230 -221 -200 -204 0 0 0 0 -3 -1 -2 -2 -19 -19 -46 -29 -37 -102 0 0 0 0 0 0 0 0 0 0 0 0
Wind_Speed
17 12 12 12 7 5 6 8 6 9 10 9 7 4 13 16 16 11 8 7 6 4 4 5 4 2 2 3 5 6 7 8 8 9 10 9 9 10 11 10 nan 6 5
19 13 12 12 7 5 4 9 11 7 9 4 1 6 nan 16 15 14 11 8 5 4 4 3 2 4 1 4 6 8 7 8 9 8 10 10 10 9 9 8 8 7 8
18 15 12 10 3 5 5 10 12 9 7 4 nan nan nan 13 10 14 9 6 3 3 6 4 6 3 2 3 4 7 8 7 8 9 9 11 10 10 10 10 10 10 11
19 17 10 9 6 1 5 9 9 8 7 8 nan nan nan 14 13 13 11 4 5 6 5 6 6 3 3 4 5 5 8 9 9 10 11 9 7 7 8 8 9 nan 9
19 15 10 9 3 3 5 5 7 9 8 10 nan 12 14 13 14 10 6 8 7 11 9 9 9 6 7 4 2 4 7 nan nan nan nan nan 8 8 7 7 7 8 9
15 12 12 10 5 3 2 3 5 9 9 11 13 12 12 13 6 5 11 11 9 12 9 10 10 11 9 8 8 6 8 8 7 8 9 nan nan 6 7 8 6 6 6
13 12 11 7 6 5 4 3 4 3 9 9 12 12 11 11 6 11 14 13 12 9 10 11 11 nan nan nan nan nan nan 7 7 8 8 7 nan nan nan nan nan nan nan
10 11 12 9 9 6 3 5 5 4 2 6 9 9 11 11 10 14 17 19 12 12 12 12 nan nan nan nan nan nan nan nan nan 6 8 8 nan nan nan nan nan nan nan
7 13 14 14 11 8 7 8 9 9 3 4 5 4 5 7 11 10 12 12 13 15 13 12 nan nan nan nan nan nan nan nan nan nan nan 11 nan nan nan nan nan nan nan
7 13 14 15 17 18 13 10 8 8 7 3 2 3 5 7 8 12 14 14 15 14 14 13 nan nan nan nan nan nan nan nan nan nan nan nan nan nan nan nan nan nan nan
2 1 7 14 17 17 15 13 14 13 10 8 7 5 12 2 8 16 16 16 14 13 14 13 13 nan nan nan nan nan nan nan nan nan nan nan nan nan nan nan nan nan nan
6 2 3 7 8 8 11 10 11 12 14 14 13 10 10 13 18 16 18 18 19 16 15 15 16 17 nan nan nan nan nan nan nan nan nan nan nan nan nan nan nan nan nan
7 6 5 5 5 5 7 7 6 9 10 9 10 11 11 13 15 18 19 20 23 19 18 20 24 nan nan nan nan nan nan nan nan nan nan nan nan nan nan nan nan nan nan
10 10 7 8 9 10 12 11 9 9 9 12 16 16 14 17 20 22 20 19 22 23 29 26 25 nan nan nan nan nan nan nan nan nan nan nan nan nan nan nan nan nan nan
17 17 15 12 14 12 13 13 19 18 18 19 19 23 33 27 25 30 33 29 25 27 31 28 nan nan nan nan nan nan nan nan nan nan nan nan nan nan nan nan nan nan nan
30 21 23 21 22 28 17 19 26 25 22 25 25 27 30 33 43 42 40 39 40 45 32 nan nan nan nan nan nan nan nan nan nan nan nan nan nan nan nan nan nan nan nan
33 30 27 28 26 28 29 27 28 28 33 26 29 31 33 40 48 44 46 48 52 43 37 nan nan nan nan nan nan nan nan nan nan nan nan nan nan nan nan nan nan nan nan
25 32 30 32 27 21 24 27 27 30 33 35 33 35 36 42 44 48 51 50 38 37 40 39 nan nan nan nan nan nan nan nan nan nan nan nan nan nan nan nan nan nan nan
25 19 28 33 25 27 32 34 36 38 34 30 33 36 42 50 54 52 42 40 40 37 35 41 nan nan nan nan nan nan nan nan nan nan nan nan nan nan nan nan nan nan nan
32 29 35 34 32 32 33 35 39 39 34 28 27 30 39 39 39 42 40 36 40 40 45 31 42 nan nan nan nan nan nan nan nan nan nan nan nan nan nan nan nan nan nan
37 34 33 32 33 34 35 38 42 38 30 27 27 35 40 37 38 43 43 41 43 45 48 nan 30 nan nan nan nan nan nan nan nan nan nan nan nan nan nan nan nan nan nan
34 35 36 37 37 39 42 43 44 36 31 27 31 33 36 34 32 34 40 47 53 55 52 46 38 nan nan nan nan nan nan nan nan nan nan nan nan nan nan nan nan nan nan
39 39 39 40 41 45 45 44 38 34 30 30 31 29 31 32 nan nan nan nan nan 47 46 49 49 47 nan nan nan nan nan nan nan nan nan nan nan nan nan nan nan nan nan
40 39 41 44 44 44 43 40 34 31 30 31 32 31 30 nan nan nan nan nan nan nan nan nan nan 48 nan nan nan nan nan nan nan nan nan nan nan nan nan nan nan nan nan
44 42 42 46 46 42 39 33 33 33 31 31 34 34 35 33 nan nan nan nan nan nan nan nan 43 nan nan nan nan nan nan nan nan nan nan nan nan nan nan nan nan nan nan
48 47 44 42 38 38 37 34 33 35 33 29 30 32 32 32 nan nan nan nan nan nan nan nan nan nan nan nan nan nan nan nan nan nan nan nan nan nan nan nan nan nan nan
Wind_Direction
350 326 320 319 305 265 255 255 257 260 274 304 315 182 191 195 202 185 198 187 191 174 183 84 67 9 286 335 349 338 337 327 329 323 331 320 330 328 330 333 nan 330 320
350 317 325 324 265 236 231 245 253 249 264 293 155 162 nan 198 196 182 211 216 238 131 142 130 313 277 303 338 338 347 339 342 333 335 321 325 338 323 317 317 316 327 340
334 316 317 343 293 188 221 232 250 245 254 239 nan nan nan 213 191 179 204 197 232 317 164 231 258 250 240 327 328 332 340 335 339 330 315 323 332 320 328 331 340 352 353
330 321 327 342 12 100 233 238 244 238 227 221 nan nan nan 160 171 191 201 202 258 280 269 269 259 254 305 303 347 346 320 335 343 337 334 333 329 321 321 338 344 nan 350
332 321 324 312 292 252 269 249 244 246 229 214 nan 202 198 189 191 202 212 226 265 273 262 252 239 245 271 292 332 305 325 nan nan nan nan nan 336 340 339 334 338 330 330
328 335 323 298 299 347 313 290 258 256 239 225 222 224 217 216 215 227 248 248 258 271 281 260 246 245 246 247 243 294 342 330 331 328 320 nan nan 322 298 288 296 303 307
329 331 341 322 341 3 358 358 19 307 247 217 215 227 225 223 241 252 271 270 273 269 281 264 248 nan nan nan nan nan nan 271 352 326 328 318 nan nan nan nan nan nan nan
343 341 2 3 25 20 35 24 30 327 325 222 207 220 226 221 258 278 289 271 255 276 275 266 nan nan nan nan nan nan nan nan nan 315 354 345 nan nan nan nan nan nan nan
5 12 24 24 27 27 27 31 41 43 90 146 187 219 228 229 291 299 299 280 279 285 262 266 nan nan nan nan nan nan nan nan nan nan nan 305 nan nan nan nan nan nan nan
29 34 27 28 36 39 38 34 38 60 71 73 94 344 305 277 272 299 308 278 279 267 259 265 nan nan nan nan nan nan nan nan nan nan nan nan nan nan nan nan nan nan nan
23 28 29 42 41 43 43 43 34 28 20 10 0 347 328 40 236 308 314 300 291 277 269 271 281 nan nan nan nan nan nan nan nan nan nan nan nan nan nan nan nan nan nan
236 272 347 44 52 48 35 39 31 26 24 16 9 355 316 306 307 318 316 296 301 291 280 274 282 293 nan nan nan nan nan nan nan nan nan nan nan nan nan nan nan nan nan
272 251 285 319 360 351 359 7 2 358 360 352 342 331 321 313 305 309 310 302 307 292 285 284 289 nan nan nan nan nan nan nan nan nan nan nan nan nan nan nan nan nan nan
277 260 279 301 310 320 328 333 328 311 309 307 307 300 300 297 301 297 296 293 288 281 286 287 288 nan nan nan nan nan nan nan nan nan nan nan nan nan nan nan nan nan nan
248 252 255 265 291 275 286 302 318 323 308 298 300 301 304 320 311 313 309 299 296 288 282 277 nan nan nan nan nan nan nan nan nan nan nan nan nan nan nan nan nan nan nan
247 248 256 264 277 282 307 291 268 272 295 304 295 296 297 299 306 313 313 301 299 299 283 nan nan nan nan nan nan nan nan nan nan nan nan nan nan nan nan nan nan nan nan
246 246 260 260 269 273 285 293 295 277 274 282 296 298 297 297 306 313 311 310 309 298 282 nan nan nan nan nan nan nan nan nan nan nan nan nan nan nan nan nan nan nan nan
234 252 252 263 279 275 274 281 280 286 290 289 280 279 285 288 295 303 297 288 300 301 281 275 nan nan nan nan nan nan nan nan nan nan nan nan nan nan nan nan nan nan nan
249 262 249 258 272 265 273 279 287 292 298 288 274 266 269 275 277 276 294 300 301 301 296 284 nan nan nan nan nan nan nan nan nan nan nan nan nan nan nan nan nan nan nan
250 257 260 266 260 268 277 292 295 300 304 294 285 285 279 276 280 287 290 292 292 294 300 272 245 nan nan nan nan nan nan nan nan nan nan nan nan nan nan nan nan nan nan
240 243 257 255 259 270 281 284 293 302 302 296 295 286 291 289 287 288 288 294 293 293 299 nan 273 nan nan nan nan nan nan nan nan nan nan nan nan nan nan nan nan nan nan
241 244 251 255 262 268 275 282 293 293 294 290 293 285 303 300 297 296 291 295 294 289 284 269 255 nan nan nan nan nan nan nan nan nan nan nan nan nan nan nan nan nan nan
237 243 248 255 262 268 276 281 286 288 290 291 293 295 299 302 nan nan nan nan nan 276 262 247 238 240 nan nan nan nan nan nan nan nan nan nan nan nan nan nan nan nan nan
244 249 256 261 266 273 278 281 283 283 287 290 289 292 297 nan nan nan nan nan nan nan nan nan nan 244 nan nan nan nan nan nan nan nan nan nan nan nan nan nan nan nan nan
251 253 258 266 272 275 275 278 281 283 285 288 290 293 298 299 nan nan nan nan nan nan nan nan 232 nan nan nan nan nan nan nan nan nan nan nan nan nan nan nan nan nan nan
257 260 262 265 268 272 277 279 281 281 285 288 294 300 301 302 nan nan nan nan nan nan nan nan nan nan nan nan nan nan nan nan nan nan nan nan nan nan nan nan nan nan nan